This demonstration page uses our WeatherBlox Daily Observations layout. Learn more.

38.88101, -77.10428

Hourly Observations for March 29, 2020

Temp ( °F °C ) Dew Point ( °F °C ) Humidity (%) Winds ( mph kmh ) Pressure ( in mb ) Visibility ( mi km ) Precip ( " mm )
12:52 am 00:52 Cloudy 51 10.6 50 10 96 96 N 3 6 29.95 1014 7 11.26538 0 0
1:52 am 01:52 Cloudy 52 11.1 50 10 93 93 NE 3 6 29.97 1015 7 11.26538 0 0
2:52 am 02:52 Cloudy with Mist and Fog 52 11.1 50 10 93 93 N 7 11 29.97 1015 6 9.65604 0 0
3:36 am 03:36 Cloudy 51 10.6 49 9.4 92 92 NE 10 17 29.94 1014 8 12.87472 0 0
3:52 am 03:52 Cloudy 51 10.6 49 9.4 92 92 NNE 9 15 29.94 1014 10 16.0934 0 0
4:28 am 04:28 Cloudy 51 10.6 50 10 96 96 ENE 8 13 29.93 1014 7 11.26538 0 0
4:52 am 04:52 Cloudy 51 10.6 50 10 96 96 NE 6 9 29.93 1014 7 11.26538 0 0
5:52 am 05:52 Cloudy with Mist and Fog 51 10.6 50 10 96 96 ENE 5 7 29.92 1013 4 6.43736 0 0
6:52 am 06:52 Cloudy with Mist and Fog 52 11.1 50 10 93 93 Calm 29.96 1014 3 4.82802 0 0
7:13 am 07:13 Cloudy with Mist and Fog 51 10.6 50 10 96 96 Calm 29.95 1014 1.75 2.816345 0 0
7:52 am 07:52 Cloudy with Mist and Fog 52 11.1 51 10.6 97 97 NE 5 7 29.96 1015 1.75 2.816345 0 0
8:00 am 08:00 Cloudy with Mist and Fog 52 11.1 51 10.6 97 97 NE 5 7 29.97 1015 2.5 4.02335 0 0
8:04 am 08:04 Cloudy with Mist and Fog 52 11.1 51 10.6 97 97 ENE 3 6 29.97 1015 3 4.82802 0 0
8:52 am 08:52 Cloudy with Mist and Fog 52 11.1 51 10.6 97 97 ENE 3 6 29.98 1015 5 8.0467 0 0
9:52 am 09:52 Cloudy with Mist and Fog 53 11.7 51 10.6 93 93 Calm 29.99 1016 6 9.65604 0 0
10:52 am 10:52 Cloudy 53 11.7 51 10.6 93 93 Calm 29.99 1016 8 12.87472 0 0
11:52 am 11:52 Cloudy 54 12.2 52 11.1 93 93 S 6 9 29.97 1015 9 14.48406 0 0
12:52 pm 12:52 Cloudy 57 13.9 53 11.7 87 87 ESE 12 19 29.85 1011 10 16.0934 0.001 0.001
1:52 pm 13:52 Cloudy 58 14.4 54 12.2 87 87 S 9 15 29.86 1011 10 16.0934 0 0
2:04 pm 14:04 Cloudy 58 14.4 54 12.2 87 87 S 7 11 29.86 1011 10 16.0934 0 0
2:52 pm 14:52 Mostly Cloudy 60 15.6 55 12.8 84 84 S 6 9 29.82 1010 10 16.0934 0 0
3:04 pm 15:04 Mostly Cloudy 62 16.7 56 13.3 80 80 SSE 6 9 29.81 1009 10 16.0934 0 0
3:52 pm 15:52 Mostly Cloudy 64 17.8 56 13.3 75 75 S 8 13 29.8 1009 10 16.0934 0 0
4:52 pm 16:52 Mostly Cloudy 67 19.4 57 13.9 71 71 S 7 11 29.78 1008 10 16.0934 0 0
5:52 pm 17:52 Mostly Cloudy 70 21.1 58 14.4 66 66 Calm 29.75 1008 10 16.0934 0 0
6:52 pm 18:52 Mostly Cloudy 66 18.9 58 14.4 75 75 Calm 29.75 1007 10 16.0934 0 0
7:52 pm 19:52 Mostly Cloudy 64 17.8 56 13.3 75 75 NE 15 24 29.77 1008 10 16.0934 0 0
8:52 pm 20:52 Partly Cloudy 60 15.6 54 12.2 80 80 NNE 14 22 29.82 1010 10 16.0934 0 0
9:52 pm 21:52 Mostly Clear 56 13.3 53 11.7 90 90 NE 8 13 29.83 1010 10 16.0934 0 0
10:52 pm 22:52 Mostly Clear 55 12.8 53 11.7 93 93 NNE 6 9 29.85 1011 9 14.48406 0 0
11:45 pm 23:45 Mostly Clear 55 12.8 53 11.7 93 93 NE 7 11 29.86 1011 7 11.26538 0 0
11:52 pm 23:52 Mostly Clear 55 12.8 53 11.7 93 93 NE 6 9 29.86 1011 7 11.26538 0 0

Powered by AerisWeather